Regional Weather Roundup
Issued by NWS

Home | Current Version | Previous Version | Text Only | Print | Product List | Glossary On
Versions: 1 2 3 4 5 6 7 8 9 10 11 12 13 14 15 16 17 18 19 20 21 22 23 24 25 26 27 28 29 30 31 32 33 34 35 36 37 38 39 40 41 42 43 44 45 46 47 48 49 50
000
ASUS44 KEWX 170702
RWRTX
SOUTH TEXAS REGIONAL WEATHER ROUNDUP
NATIONAL WEATHER SERVICE AUSTIN/SAN ANTONIO TX
200 AM CDT WED SEP 17 2014

NOTE: "FAIR" INDICATED FEW OR NO CLOUDS BELOW 12,000 FEET WITH NO
SIGNIFICANT WEATHER AND/OR OBSTRUCTIONS TO VISIBILITY.

* - THESE STATIONS ARE NOT NWS OR FAA STATIONS...AND ARE NOT SUBJECT
    TO NWS AND FAA QUALITY CONTROL.

TXZ171-172-183>190-170800-
TEXAS HILL COUNTRY AND EDWARDS PLATEAU

CITY           SKY/WX    TMP DP  RH WIND       PRES   REMARKS
JUNCTION       CLOUDY    76  68  76 S3        30.03S
*LLANO         MOCLDY    73  72  94 SE5       30.04F
BURNET         MOCLDY    75  70  84 S5        30.03F
*HORSESHOE BAY CLOUDY    73  73 100 CALM      30.01F
*KERRVILLE     MOCLDY    74  71  91 SE3       30.03F
*FREDERICKSBRG CLOUDY    73  71  96 E3        30.03F
*ROCKSPRINGS   CLOUDY    73  70  88 CALM      30.08F
*BOERNE STAGE  CLOUDY    73  70  88 SE3       30.03S
*CASTROVILLE   CLOUDY    79  72  78 SE10      30.00F
HONDO          MOCLDY    79  73  82 SE9       30.00F
*UVALDE        PTCLDY    76  73  90 E5        29.99F
DEL RIO        MOCLDY    79  72  79 E7        29.97S
LAUGHLIN AFB   NOT AVBL
CARRIZO SPRGS  PTCLDY    75  73  94 CALM      29.95S
$$

TXZ173-191>194-202-209-217>225-228-170800-
CENTRAL AND SOUTH CENTRAL TEXAS

CITY           SKY/WX    TMP DP  RH WIND       PRES   REMARKS
GEORGETOWN     MOCLDY    73  72  94 S5        30.00F
AUSTIN/BERGSTM CLOUDY    75  73  93 CALM      29.98F
AUSTIN/MABRY   CLOUDY    76  74  93 CALM      29.99F
*AUSTIN/EXEC   CLOUDY    73  73 100 CALM      29.99F
*LAGO VISTA    CLOUDY    75  73  93 CALM      30.02S FOG
SAN MARCOS     CLOUDY    75  70  83 SE3       29.99F
NEW BRAUNFELS  CLOUDY    76  73  91 SE5       29.98F
RANDOLPH AFB   CLOUDY    75  74  94 E3        29.99F
PT SAN ANTONIO CLOUDY    78  74  88 E8        29.97F
SAN ANTONIO    CLOUDY    78  74  87 E7        29.99F
STINSON FIELD  CLOUDY    78  75  90 SE6       29.96F
*PLEASANTON    CLOUDY    77  74  91 E5        29.97F
*LA GRANGE     MOCLDY    76  75  98 CALM      29.96F
*GIDDINGS      MOCLDY    74  72  95 CALM      30.02F
*GONZALES      CLOUDY    76  76  98 SE3       29.97F
$$

TXZ163>164-176>182-195>201-210>213-226-227-235-170800-
SOUTHEAST TEXAS

CITY           SKY/WX    TMP DP  RH WIND       PRES   REMARKS
COLLEGE STN    MOCLDY    76  74  93 E5        29.98F
*BRYAN         MOCLDY   N/A N/A N/A S3        29.97F
*CALDWELL      CLOUDY    73  73 100 CALM      30.02F
*CROCKETT      MOCLDY    75  75 100 CALM      30.02S
*BRENHAM       CLOUDY    76  75  96 CALM      29.98S FOG
HUNTSVILLE     PTCLDY    75  73  93 CALM      29.99S
CONROE         MOCLDY    74  73  97 CALM      29.98F
HOUSTON BUSH   CLOUDY    77  75  93 SE6       29.97F
HOUSTON HOBBY  CLOUDY    77  76  96 SE3       29.96F
*HOUSTON SW AP CLOUDY    76  76 100 CALM      29.97F
PEARLAND       CLOUDY    79  75  87 CALM      29.97F
HOUSTON HOOKS  CLOUDY    76  74  93 CALM      29.97F
ELLINGTON FLD  NOT AVBL
SUGAR LAND     CLOUDY    79  75  87 CALM      29.96F
*HOUSTON EXEC  CLOUDY    75  75 100 SE3       29.98F
*CLEVELAND MUN CLOUDY    73  73  98 CALM      29.99F
*WHARTON       PTCLDY    75  74  97 SE3       29.98F FOG
$$

TXZ214>216-236>238-170800-
THE UPPER TEXAS COAST

CITY           SKY/WX    TMP DP  RH WIND       PRES   REMARKS
*ORANGE        CLOUDY   N/A N/A N/A CALM      30.00F
PORT ARTHUR    CLOUDY    78  76  93 E5        29.98F
GALVESTON      CLOUDY    81  78  91 S7        29.98F
ANGLETON       CLOUDY    76  74  93 CALM      29.96F
*BAY CITY      DRIZZLE  N/A N/A N/A CALM      29.96F
PALACIOS       NOT AVBL
$$

TXZ229>234-239>247-170800-
TEXAS COASTAL BEND AND RIO GRANDE PLAINS

CITY           SKY/WX    TMP DP  RH WIND       PRES   REMARKS
VICTORIA       PTCLDY    77  76  96 SE3       29.97F
*BEEVILLE      MOCLDY    78  77  99 E3        29.96F
ROCKPORT       PTCLDY    80  76  87 S7        29.96F
*PORT ARANSAS  CLOUDY    82  75  79 S12       29.96S
*PORT LAVACA   PTCLDY    78  76  94 S3        29.97F
*INGLESIDE     MOCLDY    83  75  79 S6        29.96F HX  90
CORPUS CHRISTI MOCLDY    79  76  90 S7        29.96S
CORPUS NAS     PTCLDY    81  79  94 S8        29.96S HX  90
*ROBSTOWN      NOT AVBL
ALICE          PTCLDY    78  75  90 S8        29.95F
KINGSVILLE NAS MOCLDY    79  77  94 S9        29.96S
COTULLA        CLOUDY   N/A N/A N/A SE7       29.96S
*FAITH RANCH   PTCLDY    75  75 100 E3        29.97S
LAREDO         CLOUDY    78  78 100 E6        29.98S
$$

TXZ248>255-170800-
DEEP SOUTH TEXAS

CITY           SKY/WX    TMP DP  RH WIND       PRES   REMARKS
BROWNSVILLE    PTCLDY    77  76  96 SE6       29.97F
PORT ISABEL    PTCLDY    79  76  90 S7        29.96F
*SOUTH PADRE   PTCLDY    82  77  83 S10       29.97S HX  91
HARLINGEN      CLEAR     76  76 100 SE6       29.95F
*HEBBRONVILLE    N/A     76  75  94 S5        29.98S
MCALLEN        CLEAR     77  76  96 SE5       29.96F
*WESLACO       CLEAR     77  74  88 S7        29.96S
FALFURRIAS     CLEAR     65  61  87 S6        29.95S
EDINBURG       NOT AVBL
*ZAPATA        CLOUDY    77  76  97 CALM      29.95S
$$

TXZ213>215-236>238-242>244-246-247-251-254-255-170800-
CMAN STATIONS

STATION/POSITION TIME  TEMP    WIND        PRES    WAVE
                       AIR SEA DIR/SP/G            HT/PER
                 (UTC) (F)     (DEG/KT/KT) (MB)    (FT/S)
SABINE PASS      0600   77 82  150/  8/ 12 1015.8
SEA RIM ST PARK  0600   77     130/  5/  5 1016.3
NORTH JETTY/GLS  0600   81 83  180/  6/  7   N/A
EAGLE POINT      0600   81 82  150/  2/  2 1015.1
MORGANS POINT    0600   80     110/  4/  5 1015.0
MISSION/ARANSAS  0600   75     150/  9     1016.0
PORT O`CONNOR    0600          150/  9/ 11   N/A
PORT ARANSAS     0600   84 84  160/ 15/ 16 1015.3
MALAQUITE BEACH  0600   83 84  150/ 16/ 18 1013.8
BAFFIN BAY       0600   82 82  170/ 11/ 14 1014.4
PORT ISABEL      0600   81 83  160/  5/  9 1015.2
$$

GMZ080-GMZ150>470-170800-
OFFSHORE BUOY REPORTS

STATION/POSITION TIME  TEMP    WIND        PRES    WAVE
                       AIR SEA DIR/SP/G            HT/PER
                 (UTC) (F)     (DEG/KT/KT) (MB)    (FT/S)
20 E GALVESTON   0700   81 84  190/  6/  8 1014.7    2/ 6
90 E PT ARANSAS  0700   84 85  180/ 10/ 12 1015.0    2/ 7
35 NE PT MANSFLD 0600   83 85  170/ 16/ 17 1014.1    3/ 6
200 E PT ISABEL  0600   83 86  160/  6/  8 1015.5    2/ 6
$$



USA.gov is the U.S. government's official web portal to all federal, state and local government web resources and services.